Stephenville, Canada

2:32 PM NDT on April 25, 2017 (GMT -0230)
Stephenville

Weather History for CYJT - December, 2013

Change the Weather History Date:

Tuesday, December 3, 2013

  Actual Average Record
Temperature  
Mean Temperature 43 °F -  
Max Temperature 49 °F 32 °F 50 °F (1996)
Min Temperature 37 °F 20 °F 12 °F (2014)
Degree Days  
Heating Degree Days 22    
Moisture  
Dew Point 40 °F    
Average Humidity 86    
Maximum Humidity 93    
Minimum Humidity 76    
Precipitation  
Precipitation 0.08 in 0.16 in - ()
Sea Level Pressure  
Sea Level Pressure 29.97 in    
Wind  
Wind Speed 10 mph ()    
Max Wind Speed 18 mph    
Max Gust Speed 23 mph    
Visibility 14.7 miles    
Events Rain    
Averages and records for this station are not official NWS values.
T = Trace of Precipitation, MM = Missing Value Source: Averaged Metar Reports

Daily Weather History Graph

Daily Weather History Graph

Search for Another Location

Airport or City:

Trip Planner

Search our weather history database for the weather conditions in past years. The results will help you decide how hot, cold, wet, or windy it might be!

Date:

Astronomy

Dec. 03, 2013 Rise Set
Actual Time 7:57 AM NST 4:30 PM NST
Civil Twilight 7:21 AM NST 5:06 PM NST
Nautical Twilight 6:41 AM NST 5:46 PM NST
Astronomical Twilight 6:04 AM NST 6:23 PM NST
Moon 8:19 AM NST (12/3) 5:30 PM NST (12/3)
Length of Visible Light 9h 44m
Length of Day
8h 32m
New Moon, 1% of the Moon is Illuminated
Dec 3
New Moon
Dec 9
First Quarter
Dec 17
Full
Dec 25
Last Quarter
Jan 1
New

Hourly Weather History & Observations

Time (NST) Temp. Windchill Dew Point Humidity Pressure Visibility Wind Dir Wind Speed Gust Speed Precip Events Conditions
12:30 AM 39.2 °F 32.5 °F 35.6 °F 87% 30.18 in 15.0 mi ENE 10.4 mph - N/A Rain Light Rain Showers
1:30 AM 39.2 °F 32.0 °F 35.6 °F 87% 30.16 in 15.0 mi East 11.5 mph - N/A Rain Light Rain Showers
2:30 AM 39 °F - 36 °F 85% 30.14 in 15 mi East 13.8 mph - - Rain Light Rain Showers
2:30 AM 39.2 °F 31.2 °F 35.6 °F 87% 30.14 in 15.0 mi East 13.8 mph - N/A Rain Light Rain Showers
3:30 AM 39.2 °F 32.0 °F 37.4 °F 93% 30.13 in 15.0 mi East 11.5 mph - N/A Rain Light Rain Showers
4:11 AM - - - N/A% - 15.0 mi ENE 10.4 mph - N/A   Mostly Cloudy
4:30 AM 41.0 °F 34.3 °F 37.4 °F 87% 30.11 in 15.0 mi East 11.5 mph - N/A   Overcast
4:59 AM - - - N/A% - 15.0 mi East 12.7 mph - N/A Rain Light Rain Showers
5:30 AM 41.0 °F 36.4 °F 37.4 °F 87% 30.07 in 15.0 mi NE 6.9 mph - N/A   Light Drizzle
6:30 AM 41.0 °F 32.2 °F 39.2 °F 93% 30.03 in 6.0 mi ENE 18.4 mph - N/A   Light Drizzle
7:08 AM - - - N/A% - 15.0 mi East 13.8 mph - N/A   Mostly Cloudy
7:30 AM 41.0 °F 32.8 °F 37.4 °F 87% 29.99 in 15.0 mi East 16.1 mph 23.0 mph N/A   Mostly Cloudy
8:30 AM 42 °F - 38 °F 82% 29.98 in 15 mi East 15.0 mph - -   Partly Cloudy
8:30 AM 42.8 °F 35.4 °F 39.2 °F 87% 29.98 in 15.0 mi East 15.0 mph 21.9 mph N/A   Mostly Cloudy
9:30 AM 44.6 °F 38.8 °F 39.2 °F 81% 29.99 in 15.0 mi East 11.5 mph 17.3 mph N/A   Mostly Cloudy
10:30 AM 46.4 °F 41.1 °F 41.0 °F 81% 29.98 in 15.0 mi East 11.5 mph 17.3 mph N/A   Mostly Cloudy
11:30 AM 46.4 °F 41.1 °F 41.0 °F 81% 29.96 in 15.0 mi ENE 11.5 mph 17.3 mph N/A   Mostly Cloudy
12:30 PM 50.0 °F - 42.8 °F 76% 29.94 in 15.0 mi ENE 11.5 mph 17.3 mph N/A   Mostly Cloudy
1:30 PM 48.2 °F - 42.8 °F 82% 29.94 in 15.0 mi ENE 13.8 mph 19.6 mph N/A   Mostly Cloudy
2:30 PM 47 °F - 43 °F 79% 29.93 in 15 mi ENE 11.5 mph - -   Overcast
2:30 PM 48.2 °F - 42.8 °F 82% 29.93 in 15.0 mi ENE 11.5 mph 17.3 mph N/A   Overcast
3:30 PM 46.4 °F 43.5 °F 42.8 °F 87% 29.92 in 15.0 mi ENE 5.8 mph - N/A   Overcast
4:30 PM 44.6 °F 40.2 °F 41.0 °F 87% 29.90 in 15.0 mi NE 8.1 mph - N/A   Overcast
5:30 PM 44.6 °F 38.4 °F 42.8 °F 93% 29.90 in 15.0 mi NE 12.7 mph - N/A   Overcast
6:30 PM 44.6 °F 39.7 °F 42.8 °F 93% 29.89 in 15.0 mi NE 9.2 mph - N/A   Overcast
7:30 PM 44.6 °F - 41.0 °F 87% 29.88 in 15.0 mi Calm Calm - N/A   Overcast
8:30 PM 44 °F - 41 °F 84% 29.84 in 15 mi NE 8.1 mph - -   Overcast
8:30 PM 44.6 °F 40.2 °F 41.0 °F 87% 29.84 in 15.0 mi NE 8.1 mph - N/A   Overcast
9:30 PM 42.8 °F 36.2 °F 41.0 °F 93% 29.84 in 15.0 mi ENE 12.7 mph - N/A   Overcast
10:30 PM 46.4 °F 42.4 °F 41.0 °F 81% 29.81 in 15.0 mi ENE 8.1 mph - N/A   Overcast
11:30 PM 44.6 °F 37.4 °F 41.0 °F 87% 29.77 in 15.0 mi ENE 16.1 mph - N/A   Overcast